SIA177 VVTS-WSSS

Flight info

Callsign SIA177
Flight time 1h 26m
Altitude 40000
Route NIXIV5H NIXIV L643 CN L642 ESPOB/N0486F400 Q801 ESBUM Q802 ELALO ELALO1B
Aircraft A359/H-SDE1E2E3GHIJ1J2J3J5M1P2RWXYZ/LB1D1

Departure

Time 2026-05-06 11:28
Airport Tan Son Nhat International Airport (VVTS)

Arrival

Time 2026-05-06 12:54
Airport Singapore Changi Airport (WSSS)
Time Latitude Longitude Altitude Speed Heading
2026-05-06 11:00 10.81709 106.66242 47 ft 0 kts 161°
2026-05-06 11:19 10.81724 106.66237 23 ft 4 kts 161°
2026-05-06 11:19 10.81750 106.66228 48 ft 4 kts 161°
2026-05-06 11:19 10.81770 106.66221 44 ft 4 kts 154°
2026-05-06 11:20 10.81797 106.66200 44 ft 3 kts 141°
2026-05-06 11:20 10.81799 106.66198 44 ft 3 kts 142°
2026-05-06 11:23 10.81796 106.66204 45 ft 1 kts 116°
2026-05-06 11:23 10.81797 106.66208 42 ft 1 kts 95°
2026-05-06 11:23 10.81802 106.66223 44 ft 5 kts 70°
2026-05-06 11:24 10.81821 106.66273 46 ft 10 kts 68°
2026-05-06 11:24 10.81852 106.66348 44 ft 12 kts 68°
2026-05-06 11:24 10.81885 106.66436 45 ft 14 kts 69°
2026-05-06 11:24 10.81922 106.66534 43 ft 16 kts 69°
2026-05-06 11:25 10.81963 106.66643 45 ft 17 kts 69°
2026-05-06 11:25 10.82007 106.66759 47 ft 18 kts 69°
2026-05-06 11:25 10.82057 106.66873 46 ft 17 kts 55°
2026-05-06 11:25 10.82139 106.66951 44 ft 15 kts 40°
2026-05-06 11:26 10.82216 106.67010 47 ft 12 kts 19°
2026-05-06 11:26 10.82284 106.66998 48 ft 10 kts 343°
2026-05-06 11:26 10.82331 106.66948 47 ft 11 kts 296°
2026-05-06 11:26 10.82338 106.66869 46 ft 12 kts 252°
2026-05-06 11:27 10.82297 106.66758 48 ft 30 kts 249°
2026-05-06 11:27 10.82136 106.66333 43 ft 99 kts 249°
2026-05-06 11:27 10.81813 106.65476 45 ft 158 kts 249°
2026-05-06 11:27 10.81375 106.64322 435 ft 177 kts 252°
2026-05-06 11:28 10.80941 106.63170 1189 ft 173 kts 248°
2026-05-06 11:28 10.80484 106.61970 1580 ft 194 kts 247°
2026-05-06 11:28 10.79955 106.60590 1786 ft 224 kts 248°
2026-05-06 11:28 10.79357 106.59024 2080 ft 251 kts 248°
2026-05-06 11:29 10.78707 106.57313 2608 ft 265 kts 248°
2026-05-06 11:29 10.77924 106.55603 3297 ft 270 kts 236°
2026-05-06 11:29 10.76558 106.54303 4021 ft 272 kts 206°
2026-05-06 11:29 10.74740 106.53866 4756 ft 271 kts 177°
2026-05-06 11:30 10.72855 106.54072 5456 ft 274 kts 169°
2026-05-06 11:30 10.70969 106.54393 6182 ft 278 kts 168°
2026-05-06 11:30 10.69070 106.54715 6880 ft 281 kts 169°
2026-05-06 11:30 10.67126 106.55035 7626 ft 284 kts 169°
2026-05-06 11:31 10.65162 106.55352 8380 ft 287 kts 169°
2026-05-06 11:31 10.63178 106.55668 9128 ft 290 kts 169°
2026-05-06 11:31 10.61171 106.55985 9874 ft 294 kts 169°
2026-05-06 11:31 10.59129 106.56307 10322 ft 308 kts 169°
2026-05-06 11:32 10.56942 106.56652 10594 ft 328 kts 169°
2026-05-06 11:32 10.54627 106.57016 10832 ft 346 kts 170°
2026-05-06 11:32 10.52228 106.57392 11122 ft 360 kts 170°
2026-05-06 11:32 10.49693 106.57789 11616 ft 367 kts 170°
2026-05-06 11:33 10.47158 106.58186 12173 ft 370 kts 169°
2026-05-06 11:33 10.44633 106.58581 12767 ft 373 kts 169°
2026-05-06 11:33 10.42052 106.58985 13344 ft 377 kts 169°
2026-05-06 11:33 10.39440 106.59396 13870 ft 381 kts 169°
2026-05-06 11:34 10.36812 106.59806 14384 ft 383 kts 170°
2026-05-06 11:34 10.34166 106.60214 14865 ft 387 kts 170°
2026-05-06 11:34 10.31495 106.60626 15364 ft 390 kts 170°
2026-05-06 11:34 10.28809 106.61040 15856 ft 392 kts 169°
2026-05-06 11:35 10.26100 106.61460 16360 ft 395 kts 169°
2026-05-06 11:35 10.23376 106.61882 16828 ft 398 kts 169°
2026-05-06 11:35 10.20662 106.62396 17307 ft 400 kts 165°
2026-05-06 11:35 10.17961 106.63117 17820 ft 402 kts 163°
2026-05-06 11:36 10.15246 106.63841 18244 ft 406 kts 166°
2026-05-06 11:36 10.12434 106.64200 18653 ft 410 kts 176°
2026-05-06 11:36 10.09570 106.64225 19070 ft 413 kts 179°
2026-05-06 11:36 10.06692 106.64187 19483 ft 415 kts 179°
2026-05-06 11:37 10.03791 106.64145 19890 ft 418 kts 179°
2026-05-06 11:37 10.00877 106.64106 20312 ft 420 kts 180°
2026-05-06 11:37 9.97943 106.64069 20709 ft 423 kts 180°
2026-05-06 11:37 9.94993 106.64033 21124 ft 425 kts 179°
2026-05-06 11:38 9.92027 106.63997 21586 ft 427 kts 180°
2026-05-06 11:38 9.89043 106.63962 21995 ft 430 kts 179°
2026-05-06 11:38 9.86042 106.63928 22425 ft 432 kts 179°
2026-05-06 11:38 9.83023 106.63893 22846 ft 435 kts 180°
2026-05-06 11:39 9.79988 106.63858 23224 ft 438 kts 179°
2026-05-06 11:39 9.76934 106.63823 23600 ft 441 kts 180°
2026-05-06 11:39 9.73850 106.63787 23895 ft 444 kts 180°
2026-05-06 11:39 9.70753 106.63751 24253 ft 446 kts 179°
2026-05-06 11:40 9.67644 106.63715 24620 ft 448 kts 179°
2026-05-06 11:40 9.64522 106.63679 25006 ft 450 kts 179°
2026-05-06 11:40 9.61385 106.63643 25407 ft 452 kts 180°
2026-05-06 11:40 9.58236 106.63607 25779 ft 455 kts 180°
2026-05-06 11:41 9.55061 106.63571 26203 ft 457 kts 180°
2026-05-06 11:41 9.51870 106.63534 26618 ft 460 kts 180°
2026-05-06 11:41 9.48657 106.63497 27027 ft 463 kts 179°
2026-05-06 11:41 9.45435 106.63460 27472 ft 465 kts 180°
2026-05-06 11:42 9.42185 106.63423 27897 ft 468 kts 179°
2026-05-06 11:42 9.38928 106.63386 28332 ft 470 kts 180°
2026-05-06 11:42 9.35641 106.63356 28678 ft 474 kts 179°
2026-05-06 11:42 9.32335 106.63319 29094 ft 477 kts 180°
2026-05-06 11:43 9.29050 106.63280 29434 ft 480 kts 180°
2026-05-06 11:43 9.25701 106.63239 29875 ft 482 kts 179°
2026-05-06 11:43 9.22343 106.63199 30199 ft 484 kts 179°
2026-05-06 11:44 9.15581 106.63121 30863 ft 488 kts 180°
2026-05-06 11:44 9.12175 106.63082 31146 ft 490 kts 179°
2026-05-06 11:44 9.08758 106.63043 31405 ft 494 kts 180°
2026-05-06 11:44 9.05316 106.63005 31695 ft 495 kts 180°
2026-05-06 11:45 9.01862 106.62966 31976 ft 497 kts 180°
2026-05-06 11:45 8.98402 106.62926 32307 ft 498 kts 180°
2026-05-06 11:45 8.94931 106.62887 32528 ft 501 kts 180°
2026-05-06 11:45 8.91437 106.62847 32759 ft 503 kts 180°
2026-05-06 11:46 8.87931 106.62808 32979 ft 505 kts 180°
2026-05-06 11:46 8.84414 106.62768 33346 ft 504 kts 180°
2026-05-06 11:46 8.80916 106.62728 33753 ft 502 kts 180°
2026-05-06 11:46 8.77438 106.62548 34120 ft 500 kts 185°
2026-05-06 11:47 8.74016 106.61925 34395 ft 501 kts 194°
2026-05-06 11:47 8.70719 106.60781 34642 ft 502 kts 203°
2026-05-06 11:47 8.67616 106.59161 34954 ft 502 kts 208°
2026-05-06 11:47 8.64604 106.57381 35240 ft 501 kts 210°
2026-05-06 11:48 8.61629 106.55538 35503 ft 501 kts 211°
2026-05-06 11:48 8.58674 106.53670 35765 ft 501 kts 211°
2026-05-06 11:48 8.55722 106.51800 36033 ft 501 kts 211°
2026-05-06 11:48 8.52769 106.49937 36287 ft 500 kts 211°
2026-05-06 11:49 8.49812 106.48083 36521 ft 500 kts 211°
2026-05-06 11:49 8.46852 106.46236 36773 ft 500 kts 211°
2026-05-06 11:49 8.43890 106.44396 37018 ft 500 kts 211°
2026-05-06 11:49 8.40930 106.42560 37270 ft 499 kts 211°
2026-05-06 11:50 8.37968 106.40724 37497 ft 499 kts 210°
2026-05-06 11:50 8.35007 106.38889 37712 ft 499 kts 210°
2026-05-06 11:50 8.32086 106.37079 37940 ft 499 kts 210°
2026-05-06 11:50 8.29129 106.35247 38144 ft 499 kts 211°
2026-05-06 11:51 8.26165 106.33411 38348 ft 499 kts 210°
2026-05-06 11:51 8.23210 106.31580 38557 ft 499 kts 210°
2026-05-06 11:51 8.20251 106.29746 38740 ft 499 kts 210°
2026-05-06 11:51 8.17289 106.27911 38876 ft 499 kts 210°
2026-05-06 11:52 8.14331 106.26080 39059 ft 498 kts 211°
2026-05-06 11:52 8.11380 106.24252 39228 ft 498 kts 210°
2026-05-06 11:52 8.08430 106.22426 39416 ft 497 kts 210°
2026-05-06 11:52 8.05486 106.20604 39604 ft 496 kts 211°
2026-05-06 11:53 8.02551 106.18787 39776 ft 495 kts 210°
2026-05-06 11:53 7.99608 106.16966 39828 ft 497 kts 211°
2026-05-06 11:53 7.93820 106.13386 39836 ft 498 kts 211°
2026-05-06 11:54 7.89924 106.10976 39835 ft 498 kts 211°
2026-05-06 11:54 7.84020 106.07326 39837 ft 497 kts 211°
2026-05-06 11:55 7.78115 106.03677 39834 ft 497 kts 211°
2026-05-06 11:55 7.72207 106.00026 39835 ft 498 kts 211°
2026-05-06 11:56 7.66299 105.96377 39835 ft 498 kts 211°
2026-05-06 11:56 7.60424 105.92750 39835 ft 499 kts 211°
2026-05-06 11:57 7.54508 105.89098 39836 ft 499 kts 211°
2026-05-06 11:57 7.48594 105.85449 39836 ft 498 kts 211°
2026-05-06 11:58 7.42682 105.81802 39834 ft 498 kts 211°
2026-05-06 11:58 7.36768 105.78155 39837 ft 498 kts 211°
2026-05-06 11:59 7.30853 105.74509 39830 ft 498 kts 211°
2026-05-06 11:59 7.24930 105.70858 39835 ft 499 kts 211°
2026-05-06 12:00 7.19008 105.67210 39837 ft 499 kts 211°
2026-05-06 12:00 7.13079 105.63558 39835 ft 499 kts 211°
2026-05-06 12:01 7.07193 105.59934 39835 ft 499 kts 211°
2026-05-06 12:01 7.01272 105.56290 39837 ft 498 kts 211°
2026-05-06 12:02 6.95256 105.52829 39837 ft 497 kts 206°
2026-05-06 12:02 6.89031 105.49763 39837 ft 497 kts 205°
2026-05-06 12:03 6.82816 105.46723 39834 ft 497 kts 205°
2026-05-06 12:03 6.76630 105.43618 39834 ft 497 kts 206°
2026-05-06 12:04 6.70495 105.40500 39832 ft 497 kts 206°
2026-05-06 12:04 6.64331 105.37360 39832 ft 497 kts 206°
2026-05-06 12:05 6.58159 105.34220 39832 ft 497 kts 206°
2026-05-06 12:05 6.51993 105.31085 39832 ft 497 kts 206°
2026-05-06 12:06 6.45818 105.27949 39832 ft 497 kts 205°
2026-05-06 12:06 6.39638 105.24810 39832 ft 497 kts 206°
2026-05-06 12:07 6.33463 105.21674 39834 ft 497 kts 206°
2026-05-06 12:07 6.27289 105.18540 39834 ft 497 kts 206°
2026-05-06 12:08 6.21156 105.15428 39834 ft 497 kts 205°
2026-05-06 12:08 6.14975 105.12292 39834 ft 497 kts 205°
2026-05-06 12:09 6.09837 105.09686 39834 ft 497 kts 205°
2026-05-06 12:09 6.03664 105.06556 39834 ft 497 kts 205°
2026-05-06 12:10 5.97484 105.03422 39834 ft 497 kts 205°
2026-05-06 12:10 5.91310 105.00293 39834 ft 497 kts 205°
2026-05-06 12:11 5.85135 104.97164 39834 ft 497 kts 205°
2026-05-06 12:11 5.78991 104.94051 39834 ft 497 kts 205°
2026-05-06 12:12 5.72809 104.90920 39833 ft 497 kts 205°
2026-05-06 12:12 5.66638 104.87795 39834 ft 497 kts 205°
2026-05-06 12:13 5.60462 104.84668 39834 ft 497 kts 205°
2026-05-06 12:13 5.54287 104.81543 39834 ft 497 kts 205°
2026-05-06 12:14 5.48115 104.78420 39837 ft 497 kts 205°
2026-05-06 12:14 5.41972 104.75313 39837 ft 497 kts 205°
2026-05-06 12:15 5.35804 104.72193 39837 ft 497 kts 205°
2026-05-06 12:15 5.29616 104.69064 39837 ft 497 kts 205°
2026-05-06 12:16 5.23480 104.65962 39837 ft 497 kts 205°
2026-05-06 12:16 5.17297 104.62837 39837 ft 497 kts 205°
2026-05-06 12:17 5.11119 104.59715 39838 ft 497 kts 205°
2026-05-06 12:17 5.04958 104.56603 39837 ft 498 kts 205°
2026-05-06 12:18 4.98765 104.53475 39837 ft 498 kts 205°
2026-05-06 12:18 4.92564 104.50367 39834 ft 498 kts 203°
2026-05-06 12:19 4.85981 104.48378 39837 ft 493 kts 186°
2026-05-06 12:19 4.79176 104.48466 39837 ft 489 kts 171°
2026-05-06 12:20 4.72410 104.49319 39837 ft 489 kts 171°
2026-05-06 12:20 4.65703 104.50175 39837 ft 489 kts 171°
2026-05-06 12:21 4.58954 104.51030 39840 ft 489 kts 171°
2026-05-06 12:21 4.52199 104.51883 39840 ft 489 kts 171°
2026-05-06 12:22 4.45444 104.52735 39840 ft 489 kts 171°
2026-05-06 12:22 4.38690 104.53587 39840 ft 489 kts 171°
2026-05-06 12:23 4.31934 104.54439 39840 ft 490 kts 171°
2026-05-06 12:23 4.25174 104.55292 39837 ft 490 kts 171°
2026-05-06 12:24 4.18452 104.56119 39837 ft 490 kts 172°
2026-05-06 12:24 4.11661 104.56759 39840 ft 490 kts 173°
2026-05-06 12:25 4.04871 104.57404 39840 ft 490 kts 172°
2026-05-06 12:25 3.98079 104.58062 39840 ft 490 kts 172°
2026-05-06 12:26 3.91291 104.58725 39840 ft 490 kts 172°
2026-05-06 12:26 3.84488 104.59390 39840 ft 490 kts 172°
2026-05-06 12:27 3.77697 104.60055 39842 ft 490 kts 172°
2026-05-06 12:27 3.70904 104.60725 39843 ft 490 kts 172°
2026-05-06 12:28 3.64115 104.61389 39843 ft 490 kts 172°
2026-05-06 12:28 3.57369 104.62050 39843 ft 490 kts 172°
2026-05-06 12:29 3.50574 104.62716 39842 ft 490 kts 172°
2026-05-06 12:29 3.47186 104.63049 39697 ft 486 kts 172°
2026-05-06 12:29 3.43834 104.63377 39132 ft 484 kts 172°
2026-05-06 12:30 3.40478 104.63706 38485 ft 485 kts 172°
2026-05-06 12:30 3.37114 104.64037 37700 ft 486 kts 172°
2026-05-06 12:30 3.33747 104.64368 36911 ft 488 kts 173°
2026-05-06 12:30 3.30356 104.64702 36117 ft 490 kts 173°
2026-05-06 12:31 3.26957 104.65036 35328 ft 493 kts 173°
2026-05-06 12:31 3.23538 104.65371 34559 ft 495 kts 173°
2026-05-06 12:31 3.20104 104.65708 33801 ft 497 kts 174°
2026-05-06 12:31 3.16646 104.66047 32946 ft 499 kts 173°
2026-05-06 12:32 3.13182 104.66386 32084 ft 501 kts 173°
2026-05-06 12:32 3.09699 104.66661 31234 ft 504 kts 178°
2026-05-06 12:32 3.06250 104.66347 30428 ft 507 kts 191°
2026-05-06 12:32 3.02922 104.65160 29739 ft 508 kts 206°
2026-05-06 12:33 3.00013 104.63173 29013 ft 507 kts 221°
2026-05-06 12:33 2.97527 104.60686 28358 ft 504 kts 225°
2026-05-06 12:33 2.95146 104.58125 27730 ft 500 kts 226°
2026-05-06 12:33 2.92796 104.55586 27100 ft 496 kts 226°
2026-05-06 12:34 2.90447 104.53058 26505 ft 492 kts 226°
2026-05-06 12:34 2.88122 104.50563 25927 ft 488 kts 226°
2026-05-06 12:34 2.85815 104.48092 25335 ft 484 kts 226°
2026-05-06 12:34 2.83529 104.45645 24764 ft 480 kts 226°
2026-05-06 12:35 2.81255 104.43213 24209 ft 476 kts 225°
2026-05-06 12:35 2.78998 104.40800 23660 ft 473 kts 225°
2026-05-06 12:35 2.76787 104.38438 23027 ft 469 kts 225°
2026-05-06 12:35 2.74566 104.36065 22393 ft 465 kts 225°
2026-05-06 12:36 2.72367 104.33715 21784 ft 460 kts 225°
2026-05-06 12:36 2.70190 104.31389 21189 ft 456 kts 225°
2026-05-06 12:36 2.68034 104.29086 20606 ft 451 kts 225°
2026-05-06 12:36 2.65897 104.26802 20013 ft 447 kts 225°
2026-05-06 12:37 2.63782 104.24543 19431 ft 443 kts 225°
2026-05-06 12:37 2.61683 104.22302 18867 ft 439 kts 225°
2026-05-06 12:37 2.59608 104.20086 18307 ft 436 kts 225°
2026-05-06 12:37 2.57541 104.17879 17701 ft 432 kts 225°
2026-05-06 12:38 2.55496 104.15696 17075 ft 428 kts 226°
2026-05-06 12:38 2.53460 104.13546 16452 ft 423 kts 224°
2026-05-06 12:38 2.51178 104.11741 15832 ft 417 kts 208°
2026-05-06 12:38 2.48507 104.10706 15243 ft 409 kts 190°
2026-05-06 12:39 2.45697 104.10450 14671 ft 403 kts 179°
2026-05-06 12:39 2.42904 104.10446 14074 ft 400 kts 178°
2026-05-06 12:39 2.40170 104.10466 13482 ft 397 kts 178°
2026-05-06 12:39 2.37423 104.10481 12836 ft 393 kts 178°
2026-05-06 12:40 2.34706 104.10490 12207 ft 389 kts 179°
2026-05-06 12:40 2.32011 104.10495 11611 ft 385 kts 179°
2026-05-06 12:40 2.29339 104.10498 11020 ft 381 kts 179°
2026-05-06 12:40 2.26727 104.10500 10736 ft 368 kts 179°
2026-05-06 12:41 2.24217 104.10499 10528 ft 354 kts 179°
2026-05-06 12:41 2.21800 104.10499 10337 ft 340 kts 179°
2026-05-06 12:41 2.19476 104.10499 10150 ft 327 kts 179°
2026-05-06 12:41 2.17259 104.10499 9996 ft 315 kts 179°
2026-05-06 12:42 2.15110 104.10499 9820 ft 303 kts 179°
2026-05-06 12:42 2.13018 104.10499 9524 ft 297 kts 179°
2026-05-06 12:42 2.10964 104.10500 9254 ft 294 kts 179°
2026-05-06 12:42 2.08921 104.10501 8978 ft 294 kts 179°
2026-05-06 12:43 2.06879 104.10501 8713 ft 293 kts 179°
2026-05-06 12:43 2.04849 104.10501 8441 ft 291 kts 179°
2026-05-06 12:43 2.02826 104.10501 8176 ft 290 kts 179°
2026-05-06 12:43 2.00833 104.10501 7918 ft 289 kts 179°
2026-05-06 12:44 1.98826 104.10501 7670 ft 288 kts 179°
2026-05-06 12:44 1.96825 104.10508 7431 ft 287 kts 179°
2026-05-06 12:44 1.94828 104.10518 7184 ft 286 kts 179°
2026-05-06 12:44 1.92839 104.10527 6959 ft 285 kts 179°
2026-05-06 12:45 1.90859 104.10536 6724 ft 284 kts 179°
2026-05-06 12:45 1.88882 104.10546 6503 ft 283 kts 179°
2026-05-06 12:45 1.84947 104.10563 6101 ft 282 kts 179°
2026-05-06 12:46 1.82993 104.10572 5900 ft 279 kts 179°
2026-05-06 12:46 1.81057 104.10581 5706 ft 277 kts 179°
2026-05-06 12:46 1.79131 104.10589 5509 ft 276 kts 179°
2026-05-06 12:46 1.77211 104.10597 5320 ft 275 kts 179°
2026-05-06 12:47 1.75299 104.10606 5132 ft 275 kts 179°
2026-05-06 12:47 1.73414 104.10614 4944 ft 274 kts 179°
2026-05-06 12:47 1.71562 104.10623 4759 ft 273 kts 179°
2026-05-06 12:47 1.69665 104.10631 4571 ft 272 kts 179°
2026-05-06 12:48 1.67769 104.10639 4366 ft 271 kts 180°
2026-05-06 12:48 1.65890 104.10525 4173 ft 270 kts 188°
2026-05-06 12:48 1.64060 104.10100 3985 ft 270 kts 198°
2026-05-06 12:48 1.62313 104.09422 3784 ft 269 kts 203°
2026-05-06 12:49 1.60598 104.08676 3593 ft 268 kts 203°
2026-05-06 12:49 1.58890 104.07937 3403 ft 267 kts 203°
2026-05-06 12:49 1.57190 104.07207 3219 ft 261 kts 203°
2026-05-06 12:49 1.55553 104.06507 3029 ft 251 kts 202°
2026-05-06 12:50 1.53979 104.05839 2821 ft 242 kts 202°
2026-05-06 12:50 1.52458 104.05196 2653 ft 232 kts 202°
2026-05-06 12:50 1.50999 104.04580 2493 ft 223 kts 202°
2026-05-06 12:50 1.49621 104.03996 2350 ft 213 kts 202°
2026-05-06 12:51 1.48298 104.03434 2210 ft 200 kts 202°
2026-05-06 12:51 1.47061 104.02907 2033 ft 188 kts 202°
2026-05-06 12:51 1.45884 104.02406 1781 ft 181 kts 202°
2026-05-06 12:51 1.44745 104.01923 1562 ft 175 kts 202°
2026-05-06 12:52 1.43646 104.01455 1335 ft 169 kts 202°
2026-05-06 12:52 1.42578 104.01001 1090 ft 166 kts 202°
2026-05-06 12:52 1.41537 104.00559 883 ft 159 kts 202°
2026-05-06 12:52 1.40542 104.00136 704 ft 152 kts 202°
2026-05-06 12:53 1.39583 103.99729 452 ft 148 kts 202°
2026-05-06 12:53 1.38640 103.99332 258 ft 147 kts 203°
2026-05-06 12:53 1.37693 103.98923 92 ft 150 kts 204°
2026-05-06 12:53 1.36767 103.98533 37 ft 134 kts 202°
2026-05-06 12:54 1.36183 103.98289 37 ft 64 kts 202°
2026-05-06 12:54 1.35838 103.98145 37 ft 29 kts 202°
2026-05-06 12:54 1.35653 103.98106 37 ft 19 kts 174°
2026-05-06 12:54 1.35537 103.98123 37 ft 17 kts 173°
2026-05-06 12:55 1.35418 103.98137 37 ft 13 kts 175°
2026-05-06 12:55 1.35327 103.98159 37 ft 14 kts 141°
2026-05-06 12:55 1.35326 103.98206 37 ft 11 kts 51°